Location: Unspecified
(0.0000°N, 0.0000°E)
Time: 04:20:22
(UTC+00:00)

Safir 2 - Pass Details

Date: 25 May 2026
Orbit: 804 x 808 km, 99.0° (Epoch: 11 June)

Event Time Altitude Azimuth Distance (km) Brightness Sun altitude
Rises 03:27:51 0° 45° (NE) 3,303 12.2 -34.4°
Reaches altitude 10° 03:31:03 10° 66° (ENE) 2,376 11.4 -33.7°
Maximum altitude 03:34:15 16° 103° (ESE) 1,967 10.6 -33.0°
Drops below altitude 10° 03:37:27 10° 141° (SE) 2,382 10.7 -32.3°
Enters shadow 03:38:23 - 149° (SSE) 2,621 10.8 -32.1°
